N56AT PAJN-CYXS

Flight info

Callsign N56AT
Flight time 1h 37m
Altitude 37000
Route SSR DCT DUXAR
Aircraft STAR/L-DFHILM3ORUVWY/W

Departure

Time 2026-05-04 22:43
Airport Juneau International Airport (PAJN)

Arrival

Time 2026-05-05 00:20
Airport Prince George (International) Airport (CYXS)
Time Latitude Longitude Altitude Speed Heading
2026-05-04 22:34 58.35952 -134.58598 81 ft 0 kts 179°
2026-05-04 22:38 58.35946 -134.58598 66 ft 6 kts 188°
2026-05-04 22:38 58.35849 -134.58635 30 ft 21 kts 179°
2026-05-04 22:38 58.35736 -134.58492 29 ft 23 kts 109°
2026-05-04 22:38 58.35685 -134.58168 30 ft 26 kts 104°
2026-05-04 22:39 58.35665 -134.58018 30 ft 4 kts 104°
2026-05-04 22:39 58.35647 -134.57900 30 ft 14 kts 105°
2026-05-04 22:39 58.35615 -134.57667 30 ft 22 kts 105°
2026-05-04 22:39 58.35571 -134.57349 30 ft 28 kts 106°
2026-05-04 22:40 58.35518 -134.56970 30 ft 32 kts 105°
2026-05-04 22:40 58.35461 -134.56570 30 ft 26 kts 105°
2026-05-04 22:40 58.35412 -134.56218 30 ft 30 kts 104°
2026-05-04 22:40 58.35359 -134.55819 30 ft 27 kts 103°
2026-05-04 22:41 58.35328 -134.55592 30 ft 18 kts 104°
2026-05-04 22:41 58.35280 -134.55324 30 ft 24 kts 131°
2026-05-04 22:41 58.35194 -134.55379 29 ft 7 kts 282°
2026-05-04 22:41 58.35197 -134.55397 28 ft 0 kts 283°
2026-05-04 22:42 58.35204 -134.55454 28 ft 12 kts 284°
2026-05-04 22:42 58.35233 -134.55660 28 ft 12 kts 284°
2026-05-04 22:42 58.35236 -134.55686 28 ft 0 kts 284°
2026-05-04 22:43 58.35272 -134.55965 28 ft 45 kts 284°
2026-05-04 22:43 58.35386 -134.56809 30 ft 87 kts 284°
2026-05-04 22:43 58.35556 -134.58029 340 ft 92 kts 281°
2026-05-04 22:43 58.35696 -134.59226 690 ft 103 kts 276°
2026-05-04 22:44 58.35505 -134.60665 1137 ft 127 kts 222°
2026-05-04 22:44 58.34609 -134.60886 1593 ft 147 kts 149°
2026-05-04 22:44 58.34261 -134.59099 2106 ft 159 kts 87°
2026-05-04 22:44 58.34279 -134.56927 2664 ft 177 kts 89°
2026-05-04 22:45 58.34142 -134.54454 3121 ft 196 kts 100°
2026-05-04 22:45 58.32852 -134.49792 4092 ft 208 kts 127°
2026-05-04 22:45 58.31964 -134.47585 4637 ft 216 kts 127°
2026-05-04 22:46 58.31021 -134.45285 5191 ft 223 kts 129°
2026-05-04 22:46 58.29849 -134.43339 5726 ft 230 kts 151°
2026-05-04 22:46 58.28469 -134.41909 6304 ft 231 kts 155°
2026-05-04 22:46 58.26982 -134.40567 6724 ft 239 kts 156°
2026-05-04 22:47 58.25427 -134.39652 7442 ft 232 kts 172°
2026-05-04 22:47 58.23826 -134.39534 8105 ft 230 kts 187°
2026-05-04 22:47 58.22254 -134.40105 8775 ft 230 kts 195°
2026-05-04 22:47 58.20717 -134.40897 9494 ft 229 kts 198°
2026-05-04 22:48 58.19154 -134.41502 10153 ft 231 kts 186°
2026-05-04 22:48 58.17551 -134.41331 10777 ft 233 kts 173°
2026-05-04 22:48 58.15964 -134.40724 11424 ft 232 kts 169°
2026-05-04 22:48 58.14409 -134.39862 12075 ft 234 kts 162°
2026-05-04 22:49 58.12902 -134.38675 12715 ft 235 kts 159°
2026-05-04 22:49 58.11419 -134.37394 13375 ft 235 kts 158°
2026-05-04 22:49 58.09938 -134.36068 14055 ft 235 kts 158°
2026-05-04 22:49 58.08489 -134.34740 14909 ft 224 kts 158°
2026-05-04 22:50 58.07153 -134.33460 16012 ft 207 kts 158°
2026-05-04 22:50 58.05914 -134.32224 17086 ft 196 kts 158°
2026-05-04 22:50 58.04758 -134.31007 18125 ft 185 kts 158°
2026-05-04 22:50 58.03673 -134.29808 19046 ft 177 kts 158°
2026-05-04 22:51 58.02643 -134.28610 19832 ft 172 kts 158°
2026-05-04 22:51 58.01629 -134.27393 20497 ft 173 kts 158°
2026-05-04 22:51 58.00616 -134.26182 21126 ft 175 kts 159°
2026-05-04 22:51 57.99578 -134.24937 21762 ft 178 kts 159°
2026-05-04 22:52 57.98532 -134.23659 22394 ft 180 kts 159°
2026-05-04 22:52 57.97479 -134.22343 23041 ft 183 kts 159°
2026-05-04 22:52 57.96418 -134.20982 23688 ft 186 kts 159°
2026-05-04 22:52 57.95350 -134.19582 24227 ft 188 kts 158°
2026-05-04 22:53 57.94276 -134.18142 24751 ft 191 kts 157°
2026-05-04 22:53 57.93264 -134.16422 25266 ft 201 kts 144°
2026-05-04 22:53 57.92363 -134.14350 25788 ft 208 kts 138°
2026-05-04 22:53 57.91538 -134.12083 26323 ft 212 kts 134°
2026-05-04 22:54 57.90768 -134.09678 26864 ft 216 kts 130°
2026-05-04 22:54 57.90046 -134.07171 27391 ft 222 kts 124°
2026-05-04 22:54 57.89412 -134.04510 27905 ft 225 kts 121°
2026-05-04 22:54 57.88874 -134.01725 28413 ft 228 kts 118°
2026-05-04 22:55 57.88297 -133.98952 28900 ft 227 kts 123°
2026-05-04 22:55 57.87662 -133.96210 29359 ft 231 kts 122°
2026-05-04 22:55 57.87056 -133.93398 29844 ft 233 kts 121°
2026-05-04 22:55 57.86444 -133.90566 30287 ft 235 kts 122°
2026-05-04 22:56 57.85820 -133.87768 30672 ft 236 kts 122°
2026-05-04 22:56 57.85191 -133.84907 31050 ft 238 kts 121°
2026-05-04 22:56 57.84554 -133.82012 31370 ft 241 kts 121°
2026-05-04 22:56 57.83911 -133.79091 31716 ft 243 kts 121°
2026-05-04 22:57 57.83261 -133.76147 32062 ft 244 kts 121°
2026-05-04 22:57 57.82607 -133.73196 32412 ft 246 kts 121°
2026-05-04 22:57 57.81949 -133.70224 32765 ft 247 kts 121°
2026-05-04 22:57 57.81294 -133.67272 33087 ft 248 kts 121°
2026-05-04 22:58 57.80628 -133.64274 33410 ft 250 kts 121°
2026-05-04 22:58 57.79957 -133.61264 33704 ft 251 kts 121°
2026-05-04 22:58 57.79284 -133.58240 33984 ft 252 kts 120°
2026-05-04 22:58 57.78606 -133.55198 34241 ft 253 kts 121°
2026-05-04 22:59 57.77926 -133.52153 34478 ft 255 kts 121°
2026-05-04 22:59 57.77236 -133.49071 34693 ft 256 kts 121°
2026-05-04 22:59 57.76545 -133.45992 34908 ft 257 kts 121°
2026-05-04 22:59 57.75847 -133.42883 35123 ft 259 kts 121°
2026-05-04 23:00 57.75149 -133.39759 35279 ft 261 kts 122°
2026-05-04 23:00 57.74437 -133.36629 35484 ft 261 kts 122°
2026-05-04 23:00 57.73730 -133.33506 35651 ft 265 kts 121°
2026-05-04 23:00 57.73016 -133.30302 35838 ft 267 kts 121°
2026-05-04 23:01 57.72295 -133.27094 36044 ft 269 kts 120°
2026-05-04 23:01 57.71552 -133.23887 36174 ft 270 kts 122°
2026-05-04 23:01 57.70812 -133.20632 36328 ft 273 kts 120°
2026-05-04 23:01 57.70092 -133.17357 36510 ft 272 kts 121°
2026-05-04 23:02 57.69332 -133.14100 36665 ft 274 kts 122°
2026-05-04 23:02 57.68585 -133.10803 36840 ft 275 kts 121°
2026-05-04 23:02 57.67833 -133.07499 36926 ft 276 kts 121°
2026-05-04 23:02 57.67076 -133.04195 37006 ft 281 kts 121°
2026-05-04 23:03 57.66300 -133.00799 37017 ft 287 kts 121°
2026-05-04 23:03 57.65505 -132.97347 37027 ft 293 kts 121°
2026-05-04 23:03 57.64695 -132.93819 37031 ft 299 kts 121°
2026-05-04 23:03 57.63871 -132.90221 37035 ft 304 kts 121°
2026-05-04 23:04 57.62186 -132.82923 37038 ft 312 kts 121°
2026-05-04 23:04 57.60446 -132.75401 37036 ft 319 kts 121°
2026-05-04 23:05 57.58676 -132.67784 37026 ft 322 kts 120°
2026-05-04 23:05 57.56889 -132.60113 37045 ft 323 kts 120°
2026-05-04 23:06 57.55097 -132.52470 37142 ft 320 kts 120°
2026-05-04 23:06 57.53310 -132.44851 37164 ft 321 kts 120°
2026-05-04 23:07 57.51518 -132.37246 37176 ft 323 kts 120°
2026-05-04 23:07 57.49700 -132.29563 37175 ft 325 kts 120°
2026-05-04 23:08 57.47871 -132.21858 37158 ft 325 kts 120°
2026-05-04 23:08 57.46039 -132.14158 37164 ft 327 kts 120°
2026-05-04 23:09 57.44192 -132.06428 37161 ft 331 kts 120°
2026-05-04 23:09 57.42308 -131.98581 37153 ft 334 kts 120°
2026-05-04 23:10 57.40407 -131.90684 37151 ft 336 kts 120°
2026-05-04 23:10 57.38498 -131.82782 37149 ft 335 kts 121°
2026-05-04 23:11 57.36586 -131.74890 37141 ft 336 kts 120°
2026-05-04 23:11 57.34652 -131.66950 37139 ft 339 kts 120°
2026-05-04 23:12 57.32705 -131.58979 37138 ft 340 kts 120°
2026-05-04 23:12 57.30754 -131.51035 37126 ft 342 kts 119°
2026-05-04 23:13 57.28791 -131.43053 37131 ft 341 kts 120°
2026-05-04 23:13 57.26830 -131.35102 37133 ft 340 kts 120°
2026-05-04 23:14 57.25181 -131.28449 37130 ft 340 kts 120°
2026-05-04 23:14 57.23209 -131.20512 37128 ft 340 kts 120°
2026-05-04 23:15 57.21229 -131.12576 37130 ft 340 kts 120°
2026-05-04 23:15 57.19242 -131.04641 37127 ft 340 kts 120°
2026-05-04 23:16 57.17270 -130.96802 37113 ft 338 kts 119°
2026-05-04 23:16 57.15304 -130.88998 37118 ft 335 kts 120°
2026-05-04 23:17 57.13343 -130.81240 37121 ft 334 kts 120°
2026-05-04 23:17 57.11370 -130.73481 37114 ft 335 kts 120°
2026-05-04 23:18 57.09403 -130.65756 37102 ft 332 kts 120°
2026-05-04 23:18 57.07431 -130.58057 37096 ft 333 kts 120°
2026-05-04 23:19 57.05457 -130.50357 37092 ft 333 kts 120°
2026-05-04 23:19 57.03482 -130.42696 37083 ft 334 kts 120°
2026-05-04 23:20 57.01493 -130.34991 37086 ft 335 kts 120°
2026-05-04 23:20 56.99482 -130.27237 37096 ft 338 kts 119°
2026-05-04 23:21 56.97446 -130.19413 37082 ft 340 kts 119°
2026-05-04 23:21 56.95398 -130.11565 37082 ft 342 kts 120°
2026-05-04 23:22 56.93331 -130.03674 37083 ft 344 kts 120°
2026-05-04 23:22 56.91252 -129.95772 37078 ft 345 kts 120°
2026-05-04 23:23 56.89147 -129.87801 37071 ft 350 kts 118°
2026-05-04 23:23 56.87028 -129.79782 37076 ft 351 kts 119°
2026-05-04 23:24 56.84911 -129.71815 37082 ft 352 kts 119°
2026-05-04 23:24 56.82761 -129.63756 37079 ft 351 kts 119°
2026-05-04 23:25 56.80605 -129.55700 37068 ft 354 kts 119°
2026-05-04 23:25 56.78396 -129.47645 37065 ft 355 kts 121°
2026-05-04 23:26 56.76032 -129.39751 37072 ft 354 kts 125°
2026-05-04 23:26 56.73254 -129.32426 37064 ft 353 kts 127°
2026-05-04 23:27 56.70495 -129.25028 37058 ft 354 kts 128°
2026-05-04 23:27 56.67722 -129.17598 37057 ft 354 kts 129°
2026-05-04 23:28 56.64967 -129.10246 37059 ft 353 kts 129°
2026-05-04 23:28 56.62196 -129.02901 37057 ft 353 kts 128°
2026-05-04 23:29 56.59397 -128.95503 37043 ft 356 kts 128°
2026-05-04 23:29 56.56576 -128.88071 37043 ft 358 kts 127°
2026-05-04 23:30 56.53768 -128.80688 37038 ft 357 kts 128°
2026-05-04 23:30 56.50953 -128.73306 37044 ft 356 kts 128°
2026-05-04 23:31 56.48127 -128.65928 37044 ft 357 kts 128°
2026-05-04 23:31 56.45297 -128.58550 37045 ft 356 kts 128°
2026-05-04 23:32 56.42462 -128.51195 37078 ft 356 kts 127°
2026-05-04 23:32 56.39629 -128.43861 37055 ft 356 kts 127°
2026-05-04 23:33 56.36782 -128.36513 37057 ft 358 kts 127°
2026-05-04 23:33 56.33943 -128.29206 37058 ft 358 kts 127°
2026-05-04 23:34 56.31067 -128.21830 37056 ft 360 kts 127°
2026-05-04 23:34 56.28185 -128.14453 37059 ft 360 kts 128°
2026-05-04 23:35 56.25294 -128.07082 37056 ft 360 kts 128°
2026-05-04 23:35 56.22412 -127.99764 37055 ft 360 kts 127°
2026-05-04 23:36 56.19509 -127.92401 37053 ft 360 kts 127°
2026-05-04 23:36 56.16625 -127.85108 37058 ft 358 kts 127°
2026-05-04 23:37 56.13721 -127.77794 37054 ft 360 kts 127°
2026-05-04 23:37 56.10812 -127.70484 37054 ft 359 kts 127°
2026-05-04 23:38 56.07907 -127.63209 37062 ft 359 kts 127°
2026-05-04 23:38 56.04996 -127.55953 37058 ft 359 kts 127°
2026-05-04 23:39 56.02079 -127.48672 37061 ft 359 kts 127°
2026-05-04 23:39 55.99156 -127.41416 37059 ft 360 kts 127°
2026-05-04 23:40 55.96239 -127.34202 37062 ft 361 kts 127°
2026-05-04 23:40 55.93292 -127.26937 37062 ft 362 kts 127°
2026-05-04 23:41 55.90358 -127.19722 37061 ft 358 kts 127°
2026-05-04 23:41 55.87433 -127.12538 37061 ft 357 kts 127°
2026-05-04 23:42 55.84499 -127.05360 37053 ft 358 kts 127°
2026-05-04 23:42 55.81561 -126.98201 37055 ft 358 kts 127°
2026-05-04 23:43 55.78618 -126.91045 37049 ft 358 kts 127°
2026-05-04 23:43 55.75687 -126.83941 37048 ft 359 kts 128°
2026-05-04 23:44 55.72726 -126.76781 37051 ft 360 kts 128°
2026-05-04 23:44 55.69752 -126.69617 37042 ft 361 kts 127°
2026-05-04 23:45 55.66765 -126.62433 37044 ft 362 kts 127°
2026-05-04 23:45 55.63776 -126.55266 37041 ft 361 kts 127°
2026-05-04 23:46 55.60772 -126.48092 37043 ft 364 kts 127°
2026-05-04 23:46 55.57743 -126.40879 37039 ft 366 kts 127°
2026-05-04 23:47 55.54712 -126.33680 37046 ft 368 kts 127°
2026-05-04 23:47 55.51650 -126.26434 37038 ft 369 kts 126°
2026-05-04 23:48 55.48576 -126.19167 37031 ft 369 kts 127°
2026-05-04 23:48 55.45495 -126.11909 37032 ft 370 kts 127°
2026-05-04 23:49 55.42405 -126.04660 37032 ft 370 kts 127°
2026-05-04 23:49 55.39304 -125.97400 37034 ft 371 kts 127°
2026-05-04 23:50 55.36156 -125.90211 37036 ft 371 kts 133°
2026-05-04 23:50 55.32196 -125.84496 37037 ft 368 kts 153°
2026-05-04 23:51 55.29973 -125.82247 36896 ft 372 kts 155°
2026-05-04 23:51 55.27646 -125.80105 36420 ft 385 kts 156°
2026-05-04 23:51 55.25234 -125.77959 35887 ft 391 kts 157°
2026-05-04 23:51 55.22786 -125.75819 35363 ft 394 kts 157°
2026-05-04 23:52 55.20352 -125.73705 34851 ft 396 kts 157°
2026-05-04 23:52 55.17866 -125.71588 34349 ft 397 kts 157°
2026-05-04 23:52 55.15374 -125.69483 33828 ft 398 kts 157°
2026-05-04 23:52 55.12879 -125.67389 33264 ft 397 kts 157°
2026-05-04 23:53 55.10388 -125.65308 32715 ft 397 kts 157°
2026-05-04 23:53 55.07892 -125.63261 32146 ft 395 kts 158°
2026-05-04 23:53 55.05406 -125.61206 31610 ft 394 kts 157°
2026-05-04 23:53 55.02923 -125.59153 31091 ft 394 kts 157°
2026-05-04 23:54 55.00450 -125.57122 30580 ft 392 kts 157°
2026-05-04 23:54 54.97982 -125.55113 30076 ft 392 kts 157°
2026-05-04 23:54 54.95518 -125.53099 29491 ft 391 kts 156°
2026-05-04 23:54 54.93048 -125.51094 28916 ft 391 kts 157°
2026-05-04 23:55 54.90606 -125.49123 28354 ft 393 kts 157°
2026-05-04 23:55 54.88128 -125.47127 27883 ft 392 kts 157°
2026-05-04 23:55 54.83159 -125.43166 27105 ft 394 kts 157°
2026-05-04 23:56 54.80660 -125.41201 26728 ft 395 kts 157°
2026-05-04 23:56 54.78150 -125.39238 26355 ft 395 kts 157°
2026-05-04 23:56 54.75641 -125.37283 25982 ft 395 kts 157°
2026-05-04 23:56 54.73127 -125.35332 25619 ft 395 kts 157°
2026-05-04 23:57 54.70616 -125.33392 25257 ft 395 kts 157°
2026-05-04 23:57 54.68104 -125.31459 24902 ft 395 kts 157°
2026-05-04 23:57 54.65591 -125.29532 24551 ft 395 kts 157°
2026-05-04 23:57 54.63074 -125.27607 24203 ft 395 kts 157°
2026-05-04 23:58 54.60558 -125.25693 23869 ft 394 kts 157°
2026-05-04 23:58 54.58081 -125.23830 23523 ft 394 kts 157°
2026-05-04 23:58 54.55560 -125.21941 23116 ft 394 kts 157°
2026-05-04 23:58 54.53036 -125.20058 22715 ft 394 kts 157°
2026-05-04 23:59 54.50586 -125.17963 22321 ft 392 kts 149°
2026-05-04 23:59 54.48356 -125.15286 21933 ft 391 kts 139°
2026-05-04 23:59 54.46559 -125.11842 21551 ft 386 kts 119°
2026-05-04 23:59 54.45770 -125.09136 21298 ft 381 kts 105°
2026-05-05 00:00 54.45115 -125.04762 20907 ft 377 kts 96°
2026-05-05 00:00 54.44779 -125.01777 20663 ft 376 kts 95°
2026-05-05 00:00 54.44106 -124.95939 20178 ft 376 kts 97°
2026-05-05 00:00 54.43529 -124.91558 19815 ft 376 kts 98°
2026-05-05 00:01 54.42893 -124.87189 19461 ft 376 kts 99°
2026-05-05 00:01 54.42208 -124.82849 19109 ft 376 kts 102°
2026-05-05 00:01 54.41481 -124.78543 18765 ft 375 kts 101°
2026-05-05 00:01 54.40782 -124.74245 18433 ft 371 kts 101°
2026-05-05 00:02 54.39922 -124.70100 18217 ft 365 kts 108°
2026-05-05 00:02 54.39038 -124.66092 18110 ft 353 kts 104°
2026-05-05 00:02 54.38224 -124.62155 18068 ft 346 kts 106°
2026-05-05 00:02 54.37394 -124.58382 18048 ft 340 kts 105°
2026-05-05 00:03 54.36597 -124.54565 18053 ft 342 kts 105°
2026-05-05 00:03 54.35762 -124.50722 18039 ft 346 kts 105°
2026-05-05 00:03 54.34929 -124.46843 18033 ft 348 kts 105°
2026-05-05 00:03 54.34090 -124.42939 18031 ft 349 kts 105°
2026-05-05 00:04 54.33243 -124.39031 18027 ft 350 kts 105°
2026-05-05 00:04 54.32399 -124.35123 18035 ft 350 kts 105°
2026-05-05 00:04 54.31552 -124.31215 18035 ft 351 kts 105°
2026-05-05 00:04 54.30703 -124.27301 18037 ft 351 kts 105°
2026-05-05 00:05 54.29848 -124.23377 18035 ft 351 kts 106°
2026-05-05 00:05 54.28997 -124.19468 18035 ft 351 kts 105°
2026-05-05 00:05 54.28118 -124.15561 18033 ft 352 kts 110°
2026-05-05 00:05 54.26886 -124.11957 18034 ft 356 kts 119°
2026-05-05 00:06 54.25486 -124.08401 18034 ft 356 kts 121°
2026-05-05 00:06 54.24083 -124.04949 17805 ft 363 kts 122°
2026-05-05 00:06 54.22619 -124.01381 17412 ft 370 kts 122°
2026-05-05 00:06 54.21133 -123.97764 17028 ft 371 kts 122°
2026-05-05 00:07 54.19666 -123.94189 16664 ft 364 kts 122°
2026-05-05 00:07 54.18231 -123.90683 16320 ft 358 kts 122°
2026-05-05 00:07 54.16819 -123.87214 15965 ft 353 kts 122°
2026-05-05 00:07 54.15432 -123.83789 15623 ft 349 kts 122°
2026-05-05 00:08 54.14063 -123.80397 15288 ft 345 kts 122°
2026-05-05 00:08 54.12716 -123.77038 14944 ft 342 kts 122°
2026-05-05 00:08 54.11379 -123.73691 14608 ft 339 kts 122°
2026-05-05 00:08 54.10063 -123.70375 14268 ft 337 kts 122°
2026-05-05 00:09 54.08757 -123.67068 13917 ft 335 kts 122°
2026-05-05 00:09 54.07471 -123.63788 13531 ft 332 kts 122°
2026-05-05 00:09 54.06199 -123.60529 13222 ft 328 kts 122°
2026-05-05 00:09 54.04948 -123.57320 12936 ft 322 kts 122°
2026-05-05 00:10 54.03722 -123.54174 12647 ft 316 kts 122°
2026-05-05 00:10 54.02515 -123.51078 12366 ft 312 kts 122°
2026-05-05 00:10 54.01323 -123.48015 12094 ft 309 kts 122°
2026-05-05 00:10 54.00157 -123.44979 11817 ft 305 kts 118°
2026-05-05 00:11 53.99430 -123.41640 11487 ft 301 kts 102°
2026-05-05 00:11 53.98974 -123.38146 10992 ft 304 kts 99°
2026-05-05 00:11 53.98583 -123.34614 10521 ft 302 kts 99°
2026-05-05 00:11 53.98224 -123.31209 10307 ft 287 kts 98°
2026-05-05 00:12 53.97888 -123.27963 9955 ft 273 kts 98°
2026-05-05 00:12 53.97524 -123.24873 9570 ft 268 kts 103°
2026-05-05 00:12 53.96997 -123.21852 9174 ft 265 kts 104°
2026-05-05 00:12 53.96534 -123.18844 8783 ft 258 kts 102°
2026-05-05 00:13 53.96092 -123.15945 8402 ft 250 kts 104°
2026-05-05 00:13 53.95633 -123.13140 8022 ft 244 kts 103°
2026-05-05 00:13 53.95206 -123.10387 7649 ft 239 kts 102°
2026-05-05 00:13 53.94781 -123.07680 7239 ft 237 kts 103°
2026-05-05 00:14 53.94350 -123.04976 6772 ft 241 kts 103°
2026-05-05 00:14 53.93907 -123.02147 6277 ft 253 kts 103°
2026-05-05 00:14 53.93503 -122.99211 5770 ft 257 kts 93°
2026-05-05 00:14 53.93587 -122.96173 5275 ft 259 kts 85°
2026-05-05 00:15 53.93673 -122.93126 4782 ft 256 kts 86°
2026-05-05 00:15 53.93597 -122.90148 4279 ft 251 kts 96°
2026-05-05 00:15 53.93240 -122.87334 3893 ft 235 kts 103°
2026-05-05 00:15 53.92833 -122.84799 3710 ft 215 kts 104°
2026-05-05 00:16 53.92435 -122.82491 3623 ft 193 kts 104°
2026-05-05 00:16 53.92008 -122.80451 3563 ft 175 kts 120°
2026-05-05 00:16 53.91252 -122.78895 3546 ft 169 kts 128°
2026-05-05 00:16 53.90475 -122.77439 3540 ft 163 kts 129°
2026-05-05 00:17 53.89720 -122.76019 3532 ft 161 kts 130°
2026-05-05 00:17 53.88964 -122.74616 3520 ft 161 kts 130°
2026-05-05 00:17 53.88208 -122.73226 3524 ft 159 kts 130°
2026-05-05 00:17 53.87256 -122.72260 3522 ft 165 kts 161°
2026-05-05 00:18 53.86143 -122.71741 3529 ft 166 kts 165°
2026-05-05 00:18 53.85020 -122.71315 3517 ft 161 kts 165°
2026-05-05 00:18 53.84068 -122.70578 3512 ft 149 kts 127°
2026-05-05 00:18 53.83707 -122.68963 3263 ft 149 kts 85°
2026-05-05 00:19 53.84166 -122.67506 2932 ft 145 kts 30°
2026-05-05 00:19 53.85042 -122.66782 2758 ft 130 kts 22°
2026-05-05 00:19 53.85835 -122.66309 2560 ft 111 kts
2026-05-05 00:19 53.86597 -122.66198 2339 ft 112 kts 355°
2026-05-05 00:20 53.87372 -122.66372 2210 ft 111 kts 349°
2026-05-05 00:20 53.88054 -122.66558 2209 ft 87 kts 350°
2026-05-05 00:20 53.88591 -122.66700 2217 ft 57 kts 351°
2026-05-05 00:20 53.88768 -122.66761 2221 ft 14 kts 327°
2026-05-05 00:21 53.88796 -122.66782 2220 ft 0 kts 349°
2026-05-05 00:21 53.88810 -122.66859 2221 ft 11 kts 269°
2026-05-05 00:21 53.88831 -122.66763 2220 ft 15 kts 120°
2026-05-05 00:21 53.88710 -122.66743 2220 ft 15 kts 193°
2026-05-05 00:22 53.88649 -122.66865 2219 ft 14 kts 259°
2026-05-05 00:22 53.88633 -122.67025 2219 ft 15 kts 260°
2026-05-05 00:22 53.88617 -122.67181 2219 ft 13 kts 259°
2026-05-05 00:22 53.88604 -122.67305 2222 ft 7 kts 260°
2026-05-05 00:23 53.88597 -122.67376 2226 ft 11 kts 261°
2026-05-05 00:23 53.88532 -122.67524 2228 ft 21 kts 211°
2026-05-05 00:23 53.88394 -122.67626 2229 ft 18 kts 193°
2026-05-05 00:23 53.88324 -122.67685 2229 ft 1 kts 205°
2026-05-05 00:24 53.88322 -122.67687 2229 ft 0 kts 205°